Погода в Девладово

Украина / Днепропетровская область     48°06′05″N   33°45′18″E
темп.,
°C
ветер,
м/с
пор.,
м/с
влажн.,
%
обл.,
%
осадки,
мм/ч
давл.,
гПа
погр.,
м
23 сентября, чт
чт2300:00+8сз2285100 0.8 1014232
03:00+8сз2385100 1.0 1014267
06:00+7сз2387100 0.9 1014225
09:00+8сз2385100 1.4 1014337
12:00+9сз338195 0.1 1014486
15:00+11сз4466100 0.6 10141235
18:00+10сз4672100 0.5 1014652
21:00+8сз238360 0.5 101580
24 сентября, пт
пт2400:00+8зсз248194 0.0 1015127
03:00+8з238029 0.0 101489
06:00+8юз3679100 0.0 1013285
09:00+10юз6971100 0.0 1012581
12:00+11юз61269100 0.1 10101113
15:00+11юз71379100 1.2 10081155
18:00+10зюз61287100 2.9 1007631
21:00+9юз5129373 3.8 1007380
25 сентября, сб
сб2500:00+8з499283 0.0 1007185
03:00+8зсз499092 0.0 1008227
06:00+8з5128999 0.0 1009423
09:00+11зсз8127385 0.0 1010893
12:00+12сз7968100 0.1 10121116
15:00+15сз895719 0.2 10141399
18:00+15сз695515 0.0 1015604
21:00+13з3661100 0.0 1017149
26 сентября, вс
вс2600:00+13з486688 0.0 1017316
03:00+13зюз51169100 0.0 1017363
06:00+14зюз51176100 0.0 1016371
09:00+15з61280100 0.1 1016606
12:00+18зсз8115647 0.1 10161683
15:00+20сз911380 0.1 10161864
18:00+17ссз610490 0.0 1017666
21:00+12с511720 0.0 1019451
27 сентября, пн
пн2700:00+10ссз38780 0.0 1020223
03:00+9с410760 0.0 1020287
06:00+7с38810 0.0 1021181
09:00+10с57680 0.0 1022527
12:00+14ссв55495 0.0 10211288
15:00+16ссв554121 0.0 10211749
18:00+15ссв46445 0.0 1021218
21:00+11ссв49565 0.0 1022203